This is the latest recevied weather packets stored in our database for station/object SQ7FJB-2. If no packets are shown the sender has not sent any weather packets the latest 10 day(s).
| Time | Temp. | Humidity | Pressure | Rain* | Wind** | Luminosity | Snow |
|---|---|---|---|---|---|---|---|
| 1777595960 | 7.22° C | 65% | 1025.7 hPa | 0 mm | - | - | - |
| 1777595347 | 7.22° C | 64% | 1025.8 hPa | 0 mm | - | - | - |
| 1777594747 | 7.22° C | 64% | 1025.9 hPa | 0 mm | - | - | - |
| 1777594135 | 7.22° C | 65% | 1025.9 hPa | 0 mm | - | - | - |
| 1777593535 | 7.22° C | 65% | 1026 hPa | 0 mm | - | - | - |
| 1777592923 | 7.22° C | 70% | 1026 hPa | 0 mm | - | - | - |
| 1777592322 | 7.22° C | 66% | 1026 hPa | 0 mm | - | - | - |
| 1777591722 | 7.22° C | 67% | 1026 hPa | 0 mm | - | - | - |
| 1777591110 | 7.78° C | 63% | 1026.2 hPa | 0 mm | - | - | - |
| 1777590510 | 7.22° C | 65% | 1026.1 hPa | 0 mm | - | - | - |
| 1777589910 | 7.78° C | 66% | 1026.2 hPa | 0 mm | - | - | - |
| 1777589309 | 7.78° C | 63% | 1026.3 hPa | 0 mm | - | - | - |
| 1777588697 | 7.78° C | 63% | 1026.2 hPa | 0 mm | - | - | - |
| 1777588098 | 7.78° C | 60% | 1026.2 hPa | 0 mm | - | - | - |
| 1777587484 | 8.33° C | 60% | 1026.2 hPa | 0 mm | - | - | - |
| 1777586259 | 8.33° C | 58% | 1026.1 hPa | 0 mm | - | - | - |
| 1777585659 | 8.33° C | 59% | 1026 hPa | 0 mm | - | - | - |
| 1777585059 | 7.78° C | 63% | 1026.1 hPa | 0 mm | - | - | - |
| 1777584448 | 7.78° C | 65% | 1026.3 hPa | 0 mm | - | - | - |
| 1777583847 | 7.78° C | 67% | 1026.4 hPa | 0 mm | - | - | - |
| 1777583235 | 7.78° C | 65% | 1026.4 hPa | 0 mm | - | - | - |
| 1777582623 | 7.78° C | 64% | 1026.4 hPa | 0 mm | - | - | - |
| 1777582022 | 7.78° C | 64% | 1026.3 hPa | 0 mm | - | - | - |
| 1777581409 | 7.78° C | 67% | 1026.5 hPa | 0 mm | - | - | - |
| 1777580809 | 7.78° C | 67% | 1026.5 hPa | 0 mm | - | - | - |
* Rain latest hour (hover to see other rain measurements)
** Current wind speed in m/s (hover to see current wind gust speed)